This demonstration page uses our WeatherBlox Daily Observations layout. Learn more.

Hourly Observations for February 12, 2019

Temp ( °F °C ) Dew Point ( °F °C ) Humidity (%) Winds ( mph kmh ) Pressure ( in mb ) Visibility ( mi km ) Precip ( " mm )
12:15 am 00:15 Cloudy 32 0 32 0 100 100 E 5 7 30.32 1027 2 3.21868 0 0
12:35 am 00:35 Cloudy 32 0 32 0 100 100 E 3 6 30.33 1027 2 3.21868 0.01 0.254
12:55 am 00:55 Cloudy 32 0 32 0 100 100 ENE 5 7 30.32 1027 2 3.21868 0.02 0.508
1:15 am 01:15 Cloudy 32 0 32 0 100 100 Calm 30.32 1027 2 3.21868 0.01 0.254
1:35 am 01:35 Cloudy 32 0 32 0 100 100 Calm 30.32 1027 2.5 4.02335 0.04 1.016
1:55 am 01:55 Cloudy 32 0 32 0 100 100 Calm 30.31 1026 2.5 4.02335 0.05 1.27
2:15 am 02:15 Cloudy 32 0 32 0 100 100 Calm 30.31 1026 2.5 4.02335 0.01 0.254
2:35 am 02:35 Cloudy 32 0 32 0 100 100 E 3 6 30.3 1026 3 4.82802 0.02 0.508
2:55 am 02:55 Cloudy 32 0 32 0 100 100 E 5 7 30.29 1026 3 4.82802 0.04 1.016
3:15 am 03:15 Cloudy 32 0 32 0 100 100 E 5 7 30.28 1025 3 4.82802 0 0
3:35 am 03:35 Cloudy 32 0 32 0 100 100 ENE 3 6 30.27 1025 3 4.82802 0.02 0.508
3:55 am 03:55 Cloudy 32 0 32 0 100 100 ENE 6 9 30.26 1025 4 6.43736 0.02 0.508
4:15 am 04:15 Cloudy 32 0 32 0 100 100 ENE 5 7 30.26 1025 3 4.82802 0.01 0.254
4:35 am 04:35 Cloudy 32 0 32 0 100 100 E 6 9 30.25 1024 4 6.43736 0.02 0.508
4:55 am 04:55 Cloudy 32 0 32 0 100 100 E 6 9 30.23 1024 5 8.0467 0.02 0.508
5:15 am 05:15 Cloudy 32 0 32 0 100 100 E 3 6 30.24 1024 3 4.82802 0.01 0.254
5:35 am 05:35 Cloudy 32 0 32 0 100 100 Calm 30.25 1024 4 6.43736 0.03 0.762
5:55 am 05:55 Cloudy 32 0 32 0 100 100 Calm 30.25 1024 3 4.82802 0.04 1.016
6:15 am 06:15 Cloudy 32 0 32 0 100 100 E 6 9 30.24 1024 3 4.82802 0.01 0.254
6:35 am 06:35 Cloudy 32 0 32 0 100 100 SE 3 6 30.26 1025 3 4.82802 0.02 0.508
6:55 am 06:55 Cloudy 32 0 32 0 100 100 ESE 6 9 30.24 1024 2.5 4.02335 0.04 1.016
7:15 am 07:15 Cloudy 32 0 32 0 100 100 E 8 13 30.21 1023 5 8.0467 0.01 0.254
7:35 am 07:35 Cloudy 32 0 32 0 100 100 ESE 7 11 30.22 1023 7 11.26538 0.01 0.254
7:55 am 07:55 Cloudy 32 0 32 0 100 100 ESE 6 9 30.23 1024 10 16.0934 0.01 0.254
8:15 am 08:15 Cloudy 32 0 32 0 100 100 E 10 17 30.19 1022 1 1.60934 0.05 1.27
8:35 am 08:35 Cloudy 32 0 32 0 100 100 ESE 3 6 30.24 1024 3 4.82802 0.08 2.032
8:55 am 08:55 Cloudy 32 0 32 0 100 100 SE 3 6 30.2 1023 2.5 4.02335 0.1 2.54
9:15 am 09:15 Cloudy 32 0 32 0 100 100 Calm 30.21 1023 5 8.0467 0.01 0.254
9:35 am 09:35 Cloudy 32 0 32 0 100 100 Calm 30.21 1023 5 8.0467 0.02 0.508
9:55 am 09:55 Cloudy 32 0 32 0 100 100 Calm 30.2 1023 2 3.21868 0.05 1.27
10:15 am 10:15 Cloudy 32 0 32 0 100 100 ENE 3 6 30.19 1022 2 3.21868 0.01 0.254
10:35 am 10:35 Cloudy 32 0 32 0 100 100 ENE 3 6 30.18 1022 4 6.43736 0.02 0.508
10:55 am 10:55 Cloudy 32 0 32 0 100 100 N 6 9 30.19 1022 4 6.43736 0.03 0.762
11:15 am 11:15 Cloudy 32 0 32 0 100 100 NE 3 6 30.17 1022 3 4.82802 0 0
11:35 am 11:35 Cloudy 32 0 32 0 100 100 ENE 3 6 30.15 1021 2.5 4.02335 0 0
11:55 am 11:55 Cloudy 34 1 34 1 100 100 ENE 6 9 30.13 1020 3 4.82802 0.02 0.508
12:15 pm 12:15 Cloudy 34 1 34 1 100 100 E 8 13 30.09 1019 2.5 4.02335 0 0
12:35 pm 12:35 Cloudy 34 1 34 1 100 100 E 9 15 30.08 1019 4 6.43736 0 0
12:55 pm 12:55 Cloudy 34 1 34 1 100 100 ENE 3 6 30.06 1018 1.75 2.816345 0.03 0.762
1:15 pm 13:15 Cloudy 34 1 34 1 100 100 E 6 9 30.03 1017 2.5 4.02335 0.01 0.254
1:35 pm 13:35 Cloudy 34 1 34 1 100 100 ENE 6 9 30.01 1016 3 4.82802 0.01 0.254
1:55 pm 13:55 Cloudy 34 1 34 1 100 100 ENE 5 7 29.99 1016 2 3.21868 0.03 0.762
2:15 pm 14:15 Cloudy 34 1 34 1 100 100 E 5 7 29.98 1015 4 6.43736 0 0
2:35 pm 14:35 Cloudy 34 1 34 1 100 100 Calm 29.98 1015 3 4.82802 0.01 0.254
2:55 pm 14:55 Cloudy 34 1 34 1 100 100 Calm 29.97 1015 1.25 2.011675 0.02 0.508
3:15 pm 15:15 Cloudy 34 1 34 1 100 100 NE 5 7 29.95 1014 2.5 4.02335 0 0
3:35 pm 15:35 Cloudy 34 1 34 1 100 100 ENE 5 7 29.93 1014 2.5 4.02335 0 0
3:55 pm 15:55 Cloudy 34 1 34 1 100 100 ENE 3 6 29.92 1013 2 3.21868 0.01 0.254
4:15 pm 16:15 Cloudy 34 1 34 1 100 100 NE 3 6 29.92 1013 1.5 2.41401 0 0
4:35 pm 16:35 Cloudy 34 1 34 1 100 100 NE 3 6 29.9 1013 1.25 2.011675 0 0
4:55 pm 16:55 Cloudy 34 1 34 1 100 100 NE 3 6 29.89 1012 1.25 2.011675 0 0
5:15 pm 17:15 Cloudy 34 1 34 1 100 100 NE 3 6 29.88 1012 1.25 2.011675 0 0
5:35 pm 17:35 Cloudy 34 1 34 1 100 100 NNE 3 6 29.89 1012 2.5 4.02335 0.01 0.254
5:55 pm 17:55 Cloudy 34 1 34 1 100 100 Calm 29.88 1012 4 6.43736 0.04 1.016
6:15 pm 18:15 Cloudy 34 1 34 1 100 100 N 3 6 29.88 1012 2 3.21868 0.02 0.508
6:35 pm 18:35 Cloudy 34 1 34 1 100 100 NNE 5 7 29.87 1012 5 8.0467 0.02 0.508
7:15 pm 19:15 Cloudy 34 1 34 1 100 100 Calm 29.86 1011 7 11.26538 0 0
7:35 pm 19:35 Cloudy 34 1 34 1 100 100 ENE 5 7 29.82 1010 5 8.0467 0 0
7:55 pm 19:55 Cloudy 34 1 34 1 100 100 Calm 29.83 1010 7 11.26538 0 0
8:15 pm 20:15 Cloudy 34 1 34 1 100 100 Calm 29.82 1010 5 8.0467 0 0
8:35 pm 20:35 Cloudy 34 1 34 1 100 100 Calm 29.8 1009 4 6.43736 0 0
8:55 pm 20:55 Cloudy 32 0 32 0 100 100 Calm 29.79 1009 5 8.0467 0 0
9:15 pm 21:15 Cloudy 34 1 34 1 100 100 Calm 29.77 1008 4 6.43736 0 0
9:35 pm 21:35 Cloudy 34 1 34 1 100 100 Calm 29.76 1008 4 6.43736 0.01 0.254
9:55 pm 21:55 Cloudy 34 1 34 1 100 100 Calm 29.75 1007 5 8.0467 0.01 0.254
10:15 pm 22:15 Cloudy 32 0 32 0 100 100 Calm 29.74 1007 5 8.0467 0.01 0.254
10:35 pm 22:35 Cloudy 34 1 34 1 100 100 Calm 29.71 1006 3 4.82802 0.01 0.254
10:55 pm 22:55 Cloudy 34 1 34 1 100 100 Calm 29.72 1006 5 8.0467 0.01 0.254
11:15 pm 23:15 Cloudy 34 1 34 1 100 100 Calm 29.7 1006 3 4.82802 0 0
11:35 pm 23:35 Cloudy 34 1 34 1 100 100 Calm 29.69 1005 2.5 4.02335 0 0
11:55 pm 23:55 Cloudy with Mist and Fog 34 1 34 1 100 100 NW 3 6 29.69 1005 2.5 4.02335 0 0

Powered by AerisWeather